Theta_e
334 331 331 329 329 328 327 327 327 330 330 335 338 339 341 343 343 346 347 359 354 353 357 358 357 356 356 355 352 352 353 354 355 352 350 348 348 344 342 342 341 340 339
336 332 332 330 330 330 329 329 328 327 327 325 328 334 339 343 345 346 344 348 355 353 354 357 357 357 357 357 355 353 352 352 356 354 350 349 348 346 343 343 342 341 339
337 336 331 330 330 333 332 332 332 330 327 326 328 325 329 337 340 345 348 346 346 354 354 354 356 356 357 358 358 356 353 352 355 354 351 349 348 346 344 343 343 342 340
337 339 330 331 331 332 329 331 328 327 325 324 325 325 326 328 332 340 343 346 347 345 352 353 355 355 356 358 359 358 355 352 354 353 352 350 348 347 344 343 343 342 340
334 337 332 332 338 330 329 329 327 327 324 324 323 324 327 327 329 327 336 343 344 348 346 353 352 352 353 355 358 358 357 353 352 353 352 351 349 348 346 343 343 342 341
334 338 333 336 335 329 327 327 330 327 326 324 320 320 326 326 327 328 330 334 342 344 348 349 351 350 351 353 355 356 358 356 354 353 352 351 349 348 347 345 343 342 342
334 340 331 331 330 327 328 329 326 325 322 324 321 321 323 326 328 327 327 329 334 341 345 348 351 352 350 350 350 353 356 358 357 355 351 349 349 349 348 346 344 342 341
335 331 333 327 328 322 325 326 325 319 319 322 318 317 315 318 322 324 327 328 332 337 338 342 350 351 352 350 348 350 354 357 358 357 352 349 349 349 349 347 345 343 341
327 329 328 326 324 322 318 322 321 320 314 318 323 318 312 311 316 324 329 327 330 334 340 341 344 345 348 351 351 352 351 353 357 357 355 351 349 350 349 348 346 344 342
322 321 322 320 321 317 314 313 313 313 313 310 313 316 320 318 316 314 322 325 331 337 339 342 341 344 352 347 350 352 348 349 353 355 354 355 352 351 350 349 346 344 343
321 317 316 316 314 311 311 311 310 309 309 308 309 310 311 313 315 315 315 317 323 328 336 342 339 340 345 350 351 351 346 345 348 349 350 351 353 352 351 348 348 345 344
314 314 313 312 311 310 309 309 308 308 308 308 308 307 308 306 310 312 313 320 320 324 329 335 340 341 342 351 349 342 340 338 338 339 341 343 346 350 349 349 349 347 346
309 310 310 309 309 310 309 307 306 306 305 305 306 306 308 306 308 310 313 314 317 322 326 330 334 336 333 339 341 340 339 334 333 332 332 333 337 339 345 347 347 347 345
308 309 308 308 307 307 308 307 304 304 304 304 304 305 305 307 307 308 307 310 312 316 322 329 333 335 331 329 325 336 340 330 329 327 327 329 332 334 335 337 337 337 336
307 307 307 306 306 307 307 306 304 303 303 303 304 304 305 306 308 308 308 309 310 309 315 323 324 341 340 343 342 342 344 329 329 325 325 325 326 326 327 327 326 326 326
306 306 306 305 305 304 303 303 302 303 302 303 303 303 304 305 307 308 308 309 312 317 312 321 326 339 341 338 339 341 337 330 325 324 323 322 322 322 322 321 320 321 321
306 304 304 304 304 302 303 301 301 301 301 302 303 303 304 306 306 307 308 311 314 315 316 318 326 335 333 334 331 332 331 327 323 321 321 320 319 318 318 317 317 317 317
305 305 304 302 302 302 302 301 301 302 301 301 302 304 304 306 306 308 309 310 310 316 317 315 319 331 327 324 325 320 320 321 319 318 317 317 317 315 315 315 315 315 315
305 304 302 301 301 301 301 301 302 302 302 302 303 304 304 306 306 309 310 311 312 315 319 319 323 329 322 319 314 315 315 314 317 317 316 315 315 314 313 313 312 312 311
303 301 301 300 301 301 301 302 302 305 303 304 304 306 306 307 307 309 311 312 315 318 321 321 326 321 320 315 314 310 309 312 312 315 315 315 314 314 313 312 312 312 309
302 300 300 301 300 301 301 301 305 305 304 305 307 307 308 309 311 311 312 314 316 319 322 323 324 317 313 310 309 311 308 308 309 313 311 312 313 313 314 314 313 312 309
300 300 300 299 299 301 300 302 305 304 304 304 304 307 309 310 312 313 312 313 312 312 317 315 322 319 313 312 310 307 307 305 303 311 309 309 313 311 314 314 313 311 308
299 299 299 299 298 301 299 300 303 304 303 303 303 304 305 306 307 310 308 308 307 307 309 321 311 309 308 309 307 306 306 306 304 307 308 306 309 309 314 311 309 310 308
299 298 299 299 299 300 298 299 302 305 305 303 303 304 304 304 303 305 305 304 304 304 307 308 308 307 309 310 309 309 308 309 311 309 309 309 314 313 315 311 307 308 306
300 300 300 300 300 300 298 298 302 303 303 304 304 302 304 304 300 301 304 303 303 303 304 303 302 302 301 302 307 309 304 305 306 308 312 311 311 311 313 309 305 305 304
306 305 302 303 303 302 297 297 300 303 302 302 303 304 301 300 298 298 308 307 305 306 308 310 309 307 308 306 305 312 309 305 308 307 313 310 311 310 307 311 310 307 307
Wind_Speed
5 7 7 7 8 9 9 11 12 11 14 16 16 18 18 17 18 10 10 4 12 24 17 19 19 20 22 23 22 22 22 23 24 24 23 23 22 22 21 20 20 19 19
4 7 8 8 9 9 9 11 11 11 11 14 16 16 17 17 17 17 13 12 17 17 20 19 21 21 23 23 23 22 21 21 23 24 24 24 24 24 24 22 21 21 20
7 7 8 8 9 9 13 12 12 12 12 12 14 15 15 17 17 18 15 14 14 19 25 25 25 22 23 22 22 22 22 22 24 24 25 25 24 24 24 24 24 23 22
9 8 10 10 11 10 12 12 12 12 12 13 12 13 13 15 18 17 15 15 14 13 19 33 23 21 22 23 23 24 23 22 23 24 25 26 26 25 25 26 26 25 25
12 10 11 12 11 12 12 12 12 13 12 13 14 14 13 13 14 16 18 17 20 15 12 17 25 25 24 23 24 24 24 24 24 25 26 27 27 27 27 27 27 26 26
14 11 12 12 11 12 12 13 14 13 14 14 17 16 13 14 14 14 15 16 16 19 16 17 14 13 20 22 24 25 24 24 25 25 26 27 28 28 28 29 28 28 26
15 12 12 13 13 14 15 15 14 16 14 13 14 13 14 15 16 15 15 15 18 17 17 15 10 10 14 27 27 25 24 24 24 25 26 26 27 28 28 28 28 28 26
14 14 13 14 15 14 16 15 14 14 14 13 14 14 15 13 13 15 15 15 18 15 18 17 16 17 14 11 17 24 25 26 25 26 26 25 27 28 27 28 29 27 26
17 17 16 15 15 13 14 14 14 15 13 13 17 14 15 14 14 12 12 14 16 13 15 16 17 15 16 8 12 20 25 25 23 22 23 23 25 27 27 27 27 26 26
18 19 17 15 14 11 11 10 10 10 11 11 11 13 17 16 16 16 14 14 13 14 14 12 14 17 13 10 30 13 24 24 23 20 19 20 24 25 25 26 24 24 25
14 17 17 14 12 11 11 12 12 12 10 11 10 12 15 15 15 15 14 13 15 13 11 12 14 12 11 13 11 12 15 14 11 11 12 15 19 24 23 25 23 24 25
12 14 15 14 13 14 12 10 12 13 12 11 10 11 10 9 12 12 15 13 14 14 13 9 6 5 10 8 6 9 8 9 9 9 8 8 10 19 21 23 23 24 25
12 13 13 12 12 13 14 13 13 13 11 12 12 10 10 10 10 13 14 13 15 11 13 13 8 4 3 10 7 5 9 9 6 7 6 6 7 10 18 19 21 22 23
12 13 13 14 15 16 15 13 11 11 12 11 14 12 10 11 10 9 9 11 14 14 11 13 10 11 9 9 4 18 17 14 7 5 6 6 6 6 6 11 10 10 9
11 14 15 17 16 16 15 15 11 13 12 12 12 12 11 10 10 7 7 10 13 14 14 11 8 3 1 5 3 6 2 8 8 7 8 11 14 16 15 15 16 14 13
16 15 16 16 15 14 15 14 12 12 13 10 9 11 11 9 9 8 8 9 14 11 13 13 10 10 5 5 7 6 6 8 12 11 12 12 11 11 15 12 16 13 12
15 15 15 16 16 15 15 14 14 15 15 13 11 11 12 11 8 8 8 9 12 11 12 13 9 10 1 3 6 8 5 7 6 11 11 10 9 10 12 12 11 11 12
14 15 15 15 15 15 15 15 15 14 14 13 12 11 12 8 10 10 9 10 10 13 12 12 10 7 4 6 5 7 6 6 7 10 10 11 8 9 9 9 8 9 10
16 15 14 15 15 15 15 15 15 16 13 11 11 10 10 10 9 8 9 9 9 12 12 10 10 3 3 2 5 6 6 8 6 11 10 8 7 7 8 7 7 8 9
15 15 14 14 14 14 14 14 15 12 6 9 10 9 9 9 9 8 8 9 11 11 12 10 7 3 3 4 3 4 5 5 5 5 9 7 5 5 5 5 5 7 7
13 13 14 13 14 12 10 14 12 8 6 7 6 7 8 11 16 13 7 7 8 8 8 8 4 3 3 2 2 3 4 5 4 1 3 2 2 2 3 7 9 11 7
13 13 14 14 15 9 22 21 16 9 10 9 7 6 5 7 5 15 16 10 7 7 9 5 4 5 3 5 5 6 6 5 3 1 1 2 2 4 4 5 10 12 14
12 13 14 14 14 13 22 20 18 9 8 9 9 7 6 6 9 10 14 12 11 11 9 4 4 3 4 3 6 7 3 2 2 3 1 3 4 5 4 5 10 9 17
9 10 13 14 14 12 20 20 17 11 10 12 12 11 10 11 12 10 11 12 11 11 10 8 9 8 7 5 5 5 5 3 2 4 5 2 6 4 5 6 9 9 7
7 8 10 11 11 13 19 20 14 11 11 13 12 13 11 11 13 13 12 12 11 11 11 13 14 12 11 9 6 5 1 4 2 3 7 3 3 5 6 6 6 9 10
7 3 6 7 7 9 16 16 13 8 11 9 10 10 16 11 14 10 10 8 8 8 9 11 7 6 6 4 7 3 3 3 4 4 3 2 1 2 2 4 7 6 6
Wind_Direction
13 339 340 322 326 331 324 330 319 312 307 297 290 283 277 274 273 278 281 213 183 209 204 213 217 225 233 234 235 232 226 222 218 215 213 211 211 212 213 213 212 210 212
11 320 323 339 321 322 332 314 310 306 292 296 291 285 279 282 278 270 267 261 197 196 229 215 219 225 233 235 235 232 229 226 221 216 213 211 211 209 210 210 211 211 213
327 308 308 302 316 322 318 302 302 302 293 293 291 284 280 272 258 266 265 264 258 203 211 208 214 219 229 232 233 232 227 221 218 215 213 212 212 210 212 212 211 210 211
290 306 301 307 316 306 304 301 299 298 296 294 297 295 290 287 286 281 266 273 247 245 207 224 212 219 224 227 230 226 225 220 216 214 214 211 210 209 209 212 213 211 210
299 296 297 297 311 301 294 298 291 291 295 297 289 281 276 273 271 272 270 261 270 256 248 218 208 209 217 219 226 230 225 217 215 213 213 211 209 208 210 211 216 215 213
303 302 306 297 296 294 292 293 295 290 291 290 280 281 282 281 280 277 277 274 261 261 245 234 204 211 218 217 220 224 226 220 216 215 214 211 211 210 210 211 213 216 214
299 292 290 299 305 297 301 300 291 288 285 284 281 274 270 262 256 249 257 261 264 262 257 253 240 200 198 214 214 215 217 222 219 217 215 212 211 212 212 212 215 214 213
320 311 313 308 301 306 301 292 286 283 279 274 276 280 280 270 262 257 249 240 245 249 256 256 248 225 232 202 209 215 213 213 216 219 216 211 210 211 213 213 216 214 213
320 312 307 306 299 296 292 310 315 312 298 297 299 295 284 276 286 280 269 237 242 239 235 252 255 237 232 239 189 206 212 212 212 216 216 212 210 211 212 216 218 213 209
313 301 294 311 317 322 315 313 310 314 302 289 294 288 289 303 296 282 286 288 284 235 241 241 235 243 220 176 226 231 196 204 205 209 219 214 212 214 213 215 219 211 209
305 326 315 314 315 307 301 301 290 283 278 280 283 276 276 283 284 288 265 272 284 286 269 218 237 253 242 222 212 201 163 191 185 198 214 217 213 214 212 218 214 209 213
315 316 320 314 310 302 295 298 292 283 276 271 268 279 277 274 283 288 300 264 255 277 285 280 290 318 322 317 296 54 149 143 180 194 218 239 249 218 208 211 211 212 212
314 312 313 303 298 294 292 287 285 280 280 272 264 262 255 262 271 281 287 289 291 253 251 270 277 69 36 326 349 306 296 270 187 182 198 231 251 253 203 204 209 211 218
307 313 306 301 301 293 289 282 277 273 269 268 264 260 265 265 261 263 276 299 290 299 272 277 275 145 184 216 154 230 186 197 177 200 202 195 172 114 154 129 120 119 126
307 305 304 299 295 295 292 292 281 279 268 262 259 259 255 264 255 252 262 268 280 280 291 261 292 306 349 236 264 266 272 154 170 151 144 126 112 110 114 119 113 112 119
310 308 306 301 301 301 296 287 283 278 275 264 255 254 251 259 257 251 251 259 262 270 277 287 334 327 343 328 355 336 85 118 96 95 94 100 109 127 127 124 116 129 122
313 311 307 305 304 298 295 290 281 279 271 268 256 251 252 253 252 253 253 246 255 252 259 275 302 289 261 1 40 43 58 85 84 88 101 109 117 119 110 123 135 143 153
314 313 310 307 305 304 300 293 287 278 270 268 266 250 250 248 250 247 247 251 251 264 268 258 274 267 50 46 62 64 51 92 95 94 95 99 98 104 114 120 132 135 137
326 325 320 319 317 310 306 298 287 277 262 262 262 252 252 249 251 249 244 242 249 254 250 237 257 284 73 71 70 61 59 66 77 91 85 95 112 128 130 136 149 147 140
329 331 326 319 319 317 310 311 306 319 245 258 252 246 246 247 252 256 259 246 256 267 259 244 230 220 119 79 83 106 91 82 90 69 65 78 99 118 136 146 161 171 163
330 328 324 329 329 324 330 331 335 328 297 285 260 241 240 245 252 253 263 260 263 295 283 268 211 149 126 136 143 135 123 100 68 80 100 78 119 158 181 191 197 193 192
337 336 341 340 338 342 342 351 360 360 8 11 3 5 18 20 307 250 243 262 335 298 292 323 257 210 136 127 135 132 134 134 139 182 147 134 185 224 210 192 193 189 193
340 348 349 348 346 350 355 359 1 14 16 18 21 24 31 29 31 55 86 79 59 52 36 271 84 72 108 127 120 121 115 74 130 140 163 181 183 231 195 145 173 192 191
342 348 345 348 354 360 5 5 6 22 30 33 26 36 42 47 41 56 69 67 56 44 41 56 72 78 91 84 96 125 128 98 162 162 213 195 178 198 163 133 149 131 130
329 343 326 333 347 8 13 13 12 23 24 36 34 36 37 45 34 43 66 73 74 67 51 63 82 82 73 56 78 121 165 127 186 194 202 207 185 192 194 139 141 133 138
332 314 288 316 336 4 10 19 16 20 28 26 30 29 28 37 33 20 78 77 79 88 91 93 80 65 85 129 199 224 201 195 201 149 67 327 231 200 146 114 152 160 160